Flag for Austria Weather past 2 weeks in Oberpullendorf, Burgenland, Austria

Now
36 °F

Chilly.


Feels Like: 36 °F
Forecast: 35 / 46 °F
Wind: 2 mph from North

Location: Eisenstadt

Current Time: Mar 4, 2015 at 12:03:10 AM

Latest Report: Mar 3, 2015 at 11:00 PM


Visibility: N/A

Pressure: 30.23 "Hg

Humidity: 55%

Dew point: 21 °F

Location of OberpullendorfLocation

Historic Weather in Oberpullendorf — Graph

°F

Oberpullendorf temperature yesterday

Maximum temperature yesterday: 50 °F (at 4:00 PM)
Minimum temperature yesterday: 36 °F (at 10:00 PM)
Average temperature yesterday: 43 °F

Past Weeks' High & Low Weather Summary

 TemperatureHumidityPressure
High57 °F (Feb 21, 3:00 PM)100% (Feb 20, 10:00 AM)30.78 "Hg (Feb 20, 10:00 AM)
Low27 °F (Feb 20, 5:00 AM)30% (Feb 21, 12:00 PM)29.57 "Hg (Feb 21, 3:00 PM)
Average40 °F74%30.05 "Hg
* Reported Feb 16 10:00 PM — Mar 3 10:00 PM, Oberpullendorf, Weather by CustomWeather, © 2015

Note: Actual official high and low records may vary slightly from our data, if they occured in-between our weather recording intervals... More about our weather records

Advertising

Oberpullendorf weather history for previous 24 hours

 ConditionsComfort  
Time TempWeatherWind HumidityBarometerVisibility
10:00 PM
Tue, Mar 3
36 °FClear.5 mph58%30.24 "Hg12 mi
9:00 PM37 °FChilly.3 mph56%30.24 "HgN/A
8:00 PM38 °FChilly.2 mph59%30.24 "HgN/A
7:00 PM40 °FChilly.2 mph56%30.23 "HgN/A
6:00 PM43 °FQuite cool.3 mph49%30.22 "HgN/A
5:00 PM49 °FCool.3 mph33%30.20 "HgN/A
4:00 PM50 °FSunny.6 mph33%30.19 "Hg12 mi
3:00 PM50 °FCool.7 mph37%30.20 "HgN/A
2:00 PM49 °FCool.10 mph36%30.20 "HgN/A
1:00 PM49 °FCool.8 mph37%30.21 "HgN/A
12:00 PM48 °FCool.8 mph38%30.21 "HgN/A
11:00 AM45 °FCool.10 mph41%30.20 "HgN/A
10:00 AM44 °FPassing clouds.8 mph45%30.19 "Hg9 mi
9:00 AM42 °FQuite cool.12 mph47%30.18 "HgN/A
8:00 AM41 °FQuite cool.10 mph57%30.17 "HgN/A
7:00 AM39 °FPassing clouds.7 mph66%30.15 "Hg9 mi
6:00 AM40 °FPassing clouds.8 mph57%30.12 "Hg9 mi
5:00 AM40 °FQuite cool.8 mph56%30.11 "HgN/A
4:00 AM40 °FChilly.8 mph56%30.10 "HgN/A
3:00 AM38 °FChilly.8 mph79%30.06 "HgN/A
2:00 AM43 °FQuite cool.9 mph55%29.98 "HgN/A
1:00 AM44 °FPassing clouds.7 mph60%29.96 "Hg9 mi
12:00 AM40 °FQuite cool.3 mph64%29.91 "HgN/A
Weather by CustomWeather, © 2015

See weather overviewHow to use our weather pages